Wind_Speed
43 42 42 42 42 42 42 42 41 40 38 38 36 35 34 32 33 35 34 33 33 35 38 38 37 35 30 29 28 27 26 26 28 35 43 43 40 37 36 36 33 31 33 31 33 36 31 27 31 31 30 30 26 22 23 23 26 32 38 42 40 34 30 26 26 28 28 23 22 25 23 22 29 32 32 33 32 25 19 18 19 19 19 19 21 26 27
43 43 42 42 42 42 42 42 42 40 38 38 37 35 34 32 33 34 34 34 33 35 37 37 36 34 31 29 29 28 28 28 29 35 44 45 41 37 34 34 31 30 33 35 37 38 33 30 32 31 28 28 26 20 21 25 25 30 37 41 41 38 37 31 27 29 31 25 22 26 29 26 26 28 28 27 26 26 26 23 19 20 21 20 19 23 26
44 43 43 42 42 42 42 42 42 40 38 37 36 35 34 32 32 34 36 35 35 36 37 37 37 35 32 30 29 29 29 29 30 35 45 47 40 35 33 31 29 30 35 39 41 41 37 33 34 32 28 27 27 23 21 25 26 27 33 40 41 38 37 38 33 31 35 33 28 28 32 31 27 27 30 29 27 29 31 30 26 24 24 22 20 22 26
44 43 43 43 42 42 43 43 42 41 38 37 36 35 34 33 33 35 37 37 36 37 37 37 37 36 34 31 31 31 30 30 31 33 43 49 43 36 32 32 33 34 36 41 43 42 40 34 33 35 31 29 29 27 23 25 25 26 31 37 39 37 36 39 36 32 36 36 29 29 34 32 28 25 29 35 34 31 32 31 27 26 26 26 26 28 30
44 44 43 43 43 43 43 43 43 41 39 37 37 36 35 34 35 37 38 37 36 37 37 37 37 37 35 32 32 33 32 32 33 33 40 48 45 40 37 36 37 37 37 43 46 42 39 36 33 38 39 37 36 33 29 27 27 28 32 35 35 36 38 39 36 33 36 35 29 29 33 34 30 24 23 32 38 35 33 30 26 24 26 27 29 31 32
45 44 44 44 43 44 44 44 43 42 40 38 37 36 35 35 36 37 37 37 37 36 35 37 39 39 37 34 33 33 33 34 34 34 38 43 42 44 45 41 40 41 39 44 48 43 40 39 34 36 41 42 41 38 33 31 31 32 36 38 35 35 39 40 36 33 36 38 33 30 30 31 32 27 22 25 32 32 32 33 31 29 29 29 28 28 28
45 45 45 45 45 45 45 44 44 43 41 39 38 37 36 34 35 36 37 37 37 35 33 34 38 41 40 37 35 34 34 34 33 34 38 40 41 44 44 40 42 45 42 43 43 38 37 40 36 34 40 44 43 38 33 34 38 38 39 43 41 39 40 42 40 36 35 37 38 36 32 26 28 31 26 23 27 28 26 30 34 35 34 32 30 28 27
46 46 46 46 46 46 46 45 44 43 42 39 38 37 36 35 35 37 38 37 36 35 33 32 35 39 40 38 36 36 35 33 34 38 39 36 37 43 44 40 40 46 48 44 38 32 34 43 42 38 41 46 45 40 35 37 41 40 38 41 43 44 44 43 44 43 39 38 38 38 36 29 26 31 30 25 26 28 26 27 32 37 38 35 36 35 31
47 47 47 47 47 47 47 46 45 44 42 40 39 37 37 37 35 36 39 37 35 35 34 33 35 38 38 37 36 37 36 35 39 43 40 33 30 35 43 43 40 45 50 47 41 35 35 45 50 44 41 45 48 42 36 36 40 39 37 39 42 45 46 44 44 45 43 41 38 34 34 33 29 30 31 27 25 27 26 25 27 32 34 33 35 37 34
48 48 48 48 48 48 47 45 44 43 42 40 39 37 37 38 36 36 39 37 35 35 35 34 36 38 40 41 39 36 36 38 40 42 40 38 32 29 39 49 47 45 48 47 45 42 38 46 54 49 43 46 50 44 34 32 38 40 40 41 43 46 47 44 44 46 43 40 36 30 30 33 32 30 30 28 26 27 29 28 28 30 32 32 34 37 36
49 49 49 48 48 47 46 44 42 42 41 40 39 38 37 38 37 37 38 37 35 36 36 35 37 41 44 44 41 37 36 38 40 40 41 44 42 34 38 52 55 48 46 48 50 49 46 50 56 53 46 46 50 47 38 34 36 39 41 41 42 44 47 46 46 47 44 39 36 33 34 37 36 33 32 33 34 34 34 33 33 34 35 34 35 35 34
49 49 48 47 47 45 44 43 41 40 40 39 39 38 38 38 38 37 38 37 36 37 37 37 40 44 45 45 44 42 39 39 41 43 42 45 47 42 39 50 60 57 51 52 55 55 55 55 58 56 51 48 51 50 45 41 39 37 39 41 39 40 44 46 47 49 47 41 37 37 41 45 43 39 37 39 42 42 38 35 35 37 37 38 40 41 40
49 48 47 46 44 43 42 41 39 39 39 39 39 39 38 38 38 38 38 36 36 38 39 39 40 43 45 46 47 45 42 41 43 43 40 39 41 43 40 44 54 59 58 55 53 55 57 58 59 59 54 50 51 52 50 47 45 41 39 42 43 43 43 45 46 48 49 46 42 42 45 48 48 45 43 43 44 44 41 37 37 38 36 38 43 47 46
47 46 45 43 42 41 39 39 39 38 38 39 39 39 38 38 38 38 38 36 36 39 41 40 39 42 46 47 47 47 45 43 41 41 40 36 35 38 39 39 44 51 56 55 50 51 56 57 59 61 56 50 50 53 54 51 51 49 44 43 45 45 44 47 47 47 47 46 47 48 48 48 48 47 47 48 46 45 44 43 41 40 38 37 40 45 44
44 43 42 41 40 39 38 38 38 38 38 39 39 39 39 39 38 38 38 36 36 39 41 40 38 41 48 51 49 49 48 42 38 40 40 36 36 38 36 37 41 42 45 47 45 49 53 52 54 60 58 51 49 52 54 53 54 55 53 49 47 44 44 47 48 49 50 47 46 49 51 51 51 47 47 48 45 44 47 48 47 45 43 40 39 43 46
41 40 39 38 38 37 37 37 37 38 38 39 39 39 39 39 38 38 38 36 36 39 40 39 39 42 49 53 52 50 49 44 40 42 40 34 35 39 37 37 41 41 38 38 38 44 50 47 47 52 54 52 51 51 51 51 50 52 52 49 45 41 39 38 38 42 47 46 45 46 47 50 51 47 45 46 44 44 46 49 51 50 47 46 45 46 47
39 38 37 37 36 36 36 37 37 38 38 39 39 39 39 39 39 39 39 37 36 39 39 38 40 43 46 52 54 51 49 47 42 41 41 35 33 36 37 38 41 39 34 31 32 38 45 45 44 45 47 49 51 50 49 49 49 49 46 41 37 34 33 32 32 35 38 39 41 41 41 43 45 44 44 45 44 43 44 48 54 55 53 52 52 51 50
36 36 35 35 35 35 36 37 37 38 38 38 39 39 39 40 39 39 39 37 35 38 38 37 40 43 42 47 55 53 48 47 44 41 42 40 35 34 35 37 39 36 32 30 31 35 39 41 41 42 42 44 46 49 50 48 47 47 41 36 34 34 34 35 34 34 35 35 35 36 37 39 39 39 42 42 39 38 40 44 50 54 56 56 55 55 54
34 34 34 34 35 35 35 36 37 37 38 38 39 39 39 40 40 38 38 37 35 37 38 36 39 42 40 42 51 54 50 47 44 42 42 42 40 37 36 38 38 34 31 32 33 34 36 37 38 39 41 42 42 45 49 48 45 43 40 38 38 37 37 37 35 34 36 35 35 35 36 38 39 38 40 40 37 36 38 40 42 46 51 53 54 55 55
32 33 33 33 34 35 35 36 36 37 37 37 37 38 38 38 39 39 37 37 36 37 38 36 37 40 41 40 45 51 53 50 46 43 41 41 42 40 37 38 36 31 30 33 34 34 36 36 37 38 39 40 40 41 44 47 47 45 42 42 45 46 44 42 40 40 39 34 31 31 33 36 39 39 39 39 39 39 42 41 39 39 41 43 45 47 47
31 32 32 33 34 34 34 34 35 35 36 36 36 36 36 36 38 39 38 37 36 37 37 35 36 39 41 41 41 44 50 53 50 46 42 40 41 41 39 37 34 29 29 32 33 35 37 38 40 40 39 39 41 42 42 44 46 46 42 41 45 48 48 45 43 44 40 33 30 31 33 36 38 37 37 39 40 41 43 42 40 39 39 38 40 41 40
30 31 32 32 33 33 33 33 34 34 34 34 35 35 34 34 36 38 39 38 38 38 37 35 37 40 40 40 39 39 45 52 52 48 45 43 43 43 42 39 35 31 30 31 32 35 38 39 42 44 43 42 43 44 43 43 45 46 43 38 38 40 41 41 41 42 41 39 37 37 38 40 40 38 38 40 40 39 38 37 36 38 39 39 39 39 38
29 31 31 32 32 33 33 33 32 32 32 33 33 33 32 31 32 34 38 39 38 38 37 35 37 39 39 38 37 37 40 47 50 49 47 45 44 45 44 41 38 35 33 32 32 34 37 39 42 45 45 45 45 45 45 44 44 44 41 37 36 37 36 36 37 38 39 41 41 41 41 42 40 40 41 40 39 38 37 35 36 39 40 41 40 39 38
28 30 31 31 31 32 32 32 32 31 31 31 31 31 30 29 29 32 36 39 38 36 36 36 37 38 37 35 36 35 36 40 45 47 47 46 46 47 45 42 40 38 35 33 33 33 35 37 39 42 44 45 45 44 44 44 44 44 42 39 38 39 39 38 38 37 38 40 41 40 40 41 40 41 42 41 39 40 39 37 36 36 36 37 38 39 39
27 29 30 30 31 31 32 32 31 30 29 29 29 29 28 28 29 30 33 37 38 36 36 37 37 37 35 33 33 34 34 35 38 42 46 47 48 48 47 43 41 39 36 35 35 35 35 36 37 39 41 43 44 45 45 44 43 43 43 42 41 42 42 42 41 40 40 39 39 39 39 41 42 42 43 42 40 40 40 38 36 33 32 32 34 35 37
27 29 30 29 30 31 32 32 31 29 28 28 27 27 27 27 28 28 30 35 37 36 36 37 36 34 32 30 30 31 32 32 33 37 43 46 47 47 47 44 41 39 38 38 38 37 36 37 37 37 39 41 43 45 47 48 46 45 44 44 43 44 44 43 42 43 44 43 42 41 40 40 41 42 41 40 40 40 39 38 36 35 34 34 34 35 36
26 28 28 28 29 30 31 31 30 29 28 27 26 26 26 26 27 26 27 31 36 36 35 36 34 31 30 29 29 28 28 29 30 34 41 45 44 44 44 42 41 40 39 39 40 39 38 37 37 36 38 40 41 41 44 47 48 48 47 48 47 46 46 46 45 44 45 44 43 42 41 41 41 41 40 41 42 43 43 41 39 37 37 37 37 37 38
26 27 27 27 28 29 30 31 30 29 27 26 26 26 26 26 26 25 25 28 34 36 35 35 34 31 29 29 28 26 25 26 26 30 39 44 41 39 40 41 40 40 40 40 40 40 39 38 38 39 40 40 39 39 41 42 43 43 45 47 49 48 48 50 49 47 47 47 47 48 48 46 43 41 40 41 42 41 41 40 38 37 36 35 35 34 35
25 26 26 27 28 29 29 30 30 28 27 26 25 26 26 25 24 24 23 25 32 36 35 34 33 31 28 27 27 25 24 24 24 26 34 41 39 35 36 39 39 39 40 40 40 40 39 38 39 41 41 41 39 39 40 40 39 40 42 44 45 46 46 48 47 46 45 44 42 42 43 42 40 39 38 35 33 31 31 32 33 33 32 32 32 32 33
24 25 26 26 27 28 29 29 29 27 26 25 25 25 24 24 23 23 22 24 31 36 35 34 33 30 27 26 26 25 24 24 24 25 29 35 36 34 33 35 36 36 38 39 39 40 40 39 41 42 42 41 39 39 39 38 38 38 39 39 40 42 42 43 43 43 41 39 36 35 36 37 36 36 36 34 32 32 31 31 32 33 34 34 34 35 36
23 24 26 25 25 28 29 28 27 26 25 25 24 24 24 23 23 22 20 22 29 35 35 33 32 29 27 26 25 24 24 23 24 25 26 30 33 33 33 33 33 33 35 37 38 38 38 39 41 43 42 40 38 37 37 36 36 38 38 37 37 38 38 38 39 40 39 39 39 39 40 40 39 38 38 37 36 37 37 35 35 36 37 37 37 36 37
21 23 25 24 24 27 29 27 25 24 24 24 24 24 23 22 21 21 19 21 27 34 35 33 31 29 27 26 25 24 23 23 24 24 25 27 29 31 32 32 31 31 32 34 34 34 35 36 39 41 41 39 36 36 35 33 33 36 39 39 39 39 38 37 38 38 37 36 35 35 36 37 37 37 37 37 38 39 40 40 39 39 39 38 37 37 38
20 22 24 22 22 26 28 26 24 24 23 24 24 23 22 22 22 21 20 21 26 33 34 33 31 29 26 24 23 23 23 23 23 24 24 24 26 27 29 29 29 30 31 33 33 33 34 35 37 40 41 38 35 35 35 33 33 35 37 39 42 43 42 39 38 38 37 35 32 32 32 32 31 31 33 35 38 39 40 41 41 41 41 41 40 40 40
20 21 22 20 21 26 28 26 24 23 23 23 23 22 22 22 22 21 20 20 26 32 33 32 31 30 26 23 22 23 23 23 23 23 24 23 24 25 25 26 26 27 29 31 33 33 34 35 35 37 38 35 33 34 34 32 31 33 34 37 41 43 44 43 41 39 39 39 38 37 36 34 34 35 36 37 39 39 40 40 41 42 42 43 42 42 41
19 19 19 19 22 26 27 25 24 23 23 23 22 22 22 22 21 20 19 20 25 30 32 32 31 30 27 25 23 23 23 23 23 23 23 23 23 23 23 23 23 24 24 26 27 29 32 34 35 36 36 32 29 29 30 28 28 30 32 36 41 45 47 47 44 42 41 40 38 37 36 36 37 39 40 40 40 41 41 42 43 43 44 44 44 44 43
18 18 18 19 23 28 28 25 24 24 23 22 22 21 21 21 21 20 20 21 25 29 30 30 29 28 27 26 25 23 24 24 23 22 23 23 23 23 23 22 22 22 22 22 23 24 26 29 31 34 35 31 28 28 29 30 30 32 33 36 40 43 45 46 45 44 42 37 32 31 33 34 36 38 39 39 40 41 41 42 42 43 43 44 44 45 44
18 18 17 19 25 29 28 26 25 24 22 22 21 21 20 20 21 21 20 21 24 28 29 29 28 27 26 25 24 24 25 25 24 23 23 23 23 24 25 24 24 24 23 23 23 23 23 24 25 27 28 28 27 28 31 33 35 35 35 35 37 40 42 43 42 40 38 34 30 31 33 34 36 37 38 39 39 40 40 40 41 41 42 43 43 44 44
18 19 18 19 25 30 28 26 25 24 23 22 21 20 20 20 20 21 20 21 23 27 28 28 28 28 27 25 23 24 25 24 24 24 23 23 23 24 25 25 25 24 24 25 25 24 23 22 23 23 24 25 26 27 28 30 32 33 33 34 34 35 35 35 33 32 33 33 33 34 35 35 36 37 38 39 39 39 39 40 40 41 42 42 42 43 43
19 20 19 19 25 29 28 26 25 24 23 22 21 20 20 20 20 20 20 20 21 25 27 27 27 28 27 24 22 24 25 24 24 25 25 24 24 24 24 24 23 23 23 24 24 24 24 23 24 24 25 26 27 27 26 26 27 28 29 29 29 28 29 29 30 31 33 34 35 36 37 37 37 37 38 38 39 39 39 40 40 41 41 42 42 43 43
18 20 19 19 24 29 29 26 25 24 23 23 22 21 20 21 21 21 21 21 21 22 24 26 26 28 27 23 19 20 23 25 25 25 24 24 24 24 23 22 22 22 23 24 24 24 24 25 26 26 26 27 28 28 26 25 26 27 28 27 26 27 28 30 32 33 34 35 35 36 36 37 37 37 38 38 39 39 39 40 40 40 41 41 42 42 43
18 19 19 19 22 28 29 27 25 25 24 23 22 22 21 21 20 19 20 21 22 22 23 24 25 27 27 25 20 19 22 26 26 25 23 23 24 24 22 21 22 23 23 23 22 22 22 24 26 27 27 28 27 26 24 24 24 25 26 26 26 27 28 29 31 32 32 34 34 35 35 36 36 37 37 37 38 38 39 39 40 40 41 41 42 43 44
18 19 18 18 21 26 28 28 26 25 24 23 23 22 21 21 21 20 19 19 20 21 22 22 23 25 27 26 22 19 20 24 25 24 24 23 23 23 21 21 23 24 23 21 21 21 21 23 24 25 25 24 23 21 22 22 22 23 25 25 27 28 28 28 28 29 30 31 32 33 34 35 35 36 38 38 39 39 40 41 41 42 43 43 44 45 46
18 19 18 17 21 27 29 28 27 26 25 24 23 22 21 21 21 21 21 19 18 20 21 22 22 24 25 25 22 18 18 20 22 22 22 22 21 21 20 21 23 23 22 21 21 22 22 22 22 22 21 21 20 19 20 20 20 22 23 24 25 26 26 26 27 28 29 30 31 32 33 34 36 38 40 41 41 42 43 44 45 45 46 46 47 47 47
19 19 17 16 21 27 29 28 28 26 25 25 24 23 23 22 21 20 21 20 18 18 20 21 21 21 21 22 21 19 18 19 21 21 21 21 21 21 22 23 24 23 20 20 21 22 23 22 21 20 19 19 18 18 18 19 20 21 22 23 24 24 25 26 27 27 28 29 31 32 34 36 38 40 41 43 44 45 46 47 48 48 49 50 49 48 48
20 20 18 18 22 27 28 28 28 27 25 25 24 23 24 25 22 20 21 21 19 18 20 21 20 19 20 21 22 20 19 20 21 21 20 20 21 21 22 23 22 20 18 18 20 23 23 21 19 18 17 18 19 19 19 20 21 21 21 22 23 24 24 25 27 28 30 31 32 34 36 38 39 40 42 43 45 46 47 48 49 50 51 52 51 50 50
20 20 18 19 22 26 27 27 28 27 25 26 25 23 23 25 24 22 22 22 21 20 22 21 20 19 20 21 21 20 19 20 21 20 19 19 19 19 19 18 17 17 17 18 20 21 20 17 16 16 17 19 20 20 20 20 20 21 21 23 24 24 25 26 28 30 32 33 33 34 36 37 38 39 40 41 43 44 46 48 49 50 51 51 51 51 51
20 20 18 17 20 24 26 27 28 27 27 27 26 24 22 23 22 21 21 22 21 20 20 20 20 20 20 21 21 20 20 20 20 19 19 18 17 16 16 16 17 18 18 18 18 17 15 13 14 16 17 18 18 18 18 18 19 20 21 23 24 25 26 28 29 30 31 32 33 33 33 33 34 35 37 39 42 44 45 47 49 51 52 53 53 52 51
20 20 18 17 20 23 25 26 26 26 26 27 27 25 23 23 22 21 21 21 21 20 20 20 20 20 20 21 21 21 20 19 19 18 18 17 16 15 16 17 18 18 18 17 15 14 14 14 15 16 16 17 17 18 18 19 20 21 23 24 25 27 28 28 28 29 30 30 30 29 29 29 31 33 36 37 38 39 39 40 41 43 45 48 50 50 49
20 19 18 18 20 22 25 26 26 26 25 24 24 24 23 23 22 23 22 20 20 21 20 19 19 19 19 20 20 20 19 19 19 18 17 17 16 16 17 18 17 17 17 16 15 14 15 16 16 16 16 17 18 19 20 21 22 23 24 25 26 27 28 28 27 26 25 25 24 24 24 26 28 31 32 32 32 32 32 31 31 32 32 34 36 39 41
20 19 19 19 20 21 23 24 25 25 25 23 22 23 23 21 21 22 22 21 20 21 20 19 19 18 17 18 18 18 19 19 18 17 17 17 17 17 18 18 17 17 16 16 16 16 16 17 17 17 18 19 20 20 21 21 22 22 23 24 24 25 26 25 25 23 21 21 21 21 22 25 27 29 29 28 26 26 26 25 25 24 23 21 21 22 25
21 20 20 20 20 21 23 23 22 23 24 23 22 23 23 21 20 21 22 21 20 20 19 19 19 19 18 19 19 18 18 18 18 18 19 19 19 19 19 18 17 17 16 15 15 16 17 18 19 19 20 20 20 20 20 21 21 22 22 22 23 23 22 22 21 20 20 19 19 20 21 24 25 25 24 22 20 19 19 19 19 17 14 13 13 12 11
21 21 21 21 21 21 22 21 19 20 22 21 21 22 22 20 20 20 20 20 20 20 20 19 19 18 18 18 18 17 16 17 18 18 19 19 19 18 18 17 17 17 17 16 16 16 18 19 20 20 20 20 19 19 20 20 21 21 21 21 20 20 19 18 17 16 16 16 17 18 20 20 20 19 18 18 17 16 15 15 14 12 10 10 11 12 11
Wind_Direction
270 269 267 266 265 264 264 264 264 264 262 260 256 256 257 258 258 256 252 247 243 241 240 239 241 239 238 241 236 228 222 213 204 200 197 194 191 192 194 189 185 188 191 194 198 201 202 212 229 236 238 246 250 241 236 232 222 214 204 201 204 195 187 210 235 242 248 248 241 244 243 226 220 220 214 200 190 190 204 229 247 241 239 241 223 221 239
268 267 265 264 263 263 263 262 263 263 261 258 255 254 254 255 256 255 251 246 241 238 238 239 240 238 237 239 233 226 222 213 206 202 199 197 193 192 191 189 194 202 195 189 194 201 202 198 208 225 233 240 251 250 234 230 226 216 204 197 199 194 187 199 219 229 235 228 213 226 240 236 221 216 221 220 209 202 199 205 226 234 235 240 228 220 235
266 265 264 263 262 262 262 262 262 262 260 257 254 252 252 252 252 253 250 245 239 236 235 236 237 234 234 236 230 226 222 213 209 205 201 199 194 188 189 192 202 211 201 191 192 198 206 201 193 205 221 225 237 247 234 228 227 219 205 196 197 202 197 195 204 216 222 219 208 213 228 238 234 216 210 217 223 223 217 212 216 226 235 240 235 230 240
265 264 262 261 261 261 261 261 261 261 260 257 253 250 250 249 248 248 248 244 239 235 233 234 234 231 230 231 226 222 220 214 211 207 204 203 197 189 195 201 205 209 200 192 192 196 204 205 191 191 203 209 220 234 234 229 225 216 208 200 199 207 207 201 204 215 223 228 225 215 214 225 236 228 210 208 215 222 226 226 226 226 230 238 241 240 242
264 262 261 260 260 259 260 260 260 260 260 257 253 249 247 246 245 246 248 246 241 237 234 232 230 227 227 228 224 221 218 212 210 208 205 205 204 200 202 205 203 203 196 190 194 197 201 206 195 186 192 200 206 214 218 223 224 212 206 205 204 209 211 206 208 216 221 226 224 214 212 217 227 235 226 213 213 216 223 236 248 246 240 245 250 249 249
262 261 260 259 259 259 259 260 259 260 259 257 253 249 246 245 246 247 247 246 243 239 238 237 231 224 222 223 222 221 220 214 208 207 202 202 210 211 205 203 203 200 192 189 194 197 199 204 201 188 191 197 200 204 205 210 221 216 204 203 204 207 213 213 213 216 217 217 215 212 216 220 219 222 230 232 227 223 222 228 239 246 247 251 256 259 261
261 261 260 258 258 258 259 259 259 259 258 256 253 249 246 244 244 244 244 243 241 238 240 243 237 226 220 219 217 217 221 217 207 204 201 201 212 215 206 202 203 202 196 192 196 203 207 212 211 196 191 192 195 201 201 203 217 220 208 205 204 203 212 217 218 218 217 214 211 207 209 218 221 214 214 231 240 238 233 228 225 229 236 240 247 256 262
261 260 259 258 258 258 258 259 259 259 258 255 252 249 245 242 240 241 241 240 238 237 235 238 238 229 223 221 217 214 217 215 205 201 202 203 210 213 208 200 198 202 203 200 202 214 222 224 219 203 191 188 188 196 200 201 214 219 212 211 210 205 208 215 217 218 218 216 212 208 203 206 216 213 205 211 223 225 230 232 228 230 236 240 243 246 250
260 259 258 257 257 257 258 259 258 258 257 254 251 247 244 242 238 238 240 237 235 234 230 229 232 228 223 222 220 218 217 212 205 203 202 202 207 211 208 201 196 198 200 201 205 213 223 225 218 203 191 185 185 194 200 199 207 213 212 216 217 212 210 213 215 217 218 215 213 214 213 212 218 218 210 212 221 222 225 232 234 238 244 248 249 246 246
258 258 258 257 258 258 258 258 257 257 255 252 249 245 242 241 237 235 237 235 231 231 228 227 227 221 217 219 217 217 219 215 209 207 205 205 210 210 203 200 198 196 195 200 207 211 216 219 212 200 189 185 187 193 195 194 199 202 202 211 219 218 216 215 214 215 216 210 205 210 220 228 236 232 217 212 218 224 229 233 238 246 249 250 251 254 256
258 258 258 258 258 258 257 257 256 254 253 249 247 243 239 239 237 233 234 232 228 228 226 225 225 218 214 217 216 214 219 217 213 213 210 210 215 216 202 197 198 198 199 204 208 209 211 211 206 199 192 190 192 194 191 187 190 192 194 204 215 219 220 219 216 215 213 206 201 205 211 220 229 230 224 222 221 220 222 225 230 240 245 243 243 247 252
259 259 259 258 258 258 256 255 253 251 249 246 244 241 237 237 236 233 232 229 225 227 225 221 223 220 216 217 218 217 218 217 214 214 214 212 214 216 206 198 200 202 205 209 210 210 210 207 203 199 196 195 196 196 194 190 190 191 193 197 206 214 219 219 216 215 213 207 206 209 210 213 218 217 219 227 229 223 217 220 229 236 239 239 238 237 239
259 259 259 258 258 257 255 253 250 248 246 243 241 238 236 235 234 232 231 227 222 225 224 221 221 221 218 217 220 221 221 219 215 215 217 215 210 211 210 205 204 207 212 215 215 214 211 207 204 201 199 201 201 198 197 197 196 197 198 199 203 208 213 216 215 214 214 212 212 212 209 210 215 213 212 220 227 223 217 220 231 235 236 239 240 239 239
259 259 258 258 256 255 252 250 247 244 242 240 238 236 234 233 232 232 230 226 221 223 224 222 221 222 219 219 221 222 223 222 218 216 220 219 211 208 211 209 207 211 215 217 218 216 212 209 208 206 203 205 207 202 199 201 202 202 205 208 209 207 208 212 213 215 217 215 215 218 216 214 216 216 215 218 223 224 222 224 229 232 235 240 244 244 242
258 257 257 256 254 252 249 246 244 242 240 238 236 235 233 232 231 230 230 226 221 223 225 222 221 222 220 219 220 221 222 222 220 218 220 221 215 212 213 212 212 215 216 216 217 217 214 212 212 212 210 209 210 206 203 205 207 207 210 215 217 217 217 215 214 218 223 221 218 221 225 226 227 226 223 223 227 229 229 228 227 228 232 237 241 245 246
257 256 254 252 251 249 245 242 240 239 238 237 235 233 232 231 229 229 229 226 222 225 226 222 219 223 224 221 220 221 222 222 221 218 219 220 216 214 215 216 218 219 216 215 214 214 216 215 212 214 215 213 213 211 209 211 213 212 214 219 222 225 225 221 218 221 224 223 222 223 226 232 235 234 230 231 236 238 235 232 228 227 231 236 238 241 246
256 254 252 249 247 245 242 239 237 236 236 236 235 232 230 229 228 227 227 226 223 226 228 222 219 224 227 223 221 221 222 224 224 221 219 221 221 217 217 220 222 220 216 215 213 212 216 218 215 215 217 216 216 218 217 217 218 219 219 220 222 226 229 228 228 229 229 227 226 226 228 234 240 242 241 241 241 239 237 237 233 230 231 236 239 239 243
255 252 249 246 244 241 239 237 234 233 234 235 234 232 229 227 227 226 227 225 223 227 229 224 221 224 227 225 222 221 221 224 226 226 223 224 226 225 224 227 228 224 219 219 218 214 215 218 218 217 217 217 217 220 222 221 222 224 224 221 219 223 228 232 233 234 235 237 237 236 236 238 241 243 244 246 244 239 238 238 238 235 234 237 238 238 241
252 249 247 243 241 239 236 235 233 232 232 234 235 233 230 227 225 225 227 225 224 227 230 226 222 224 227 227 224 222 222 222 223 225 225 225 226 227 227 230 232 229 222 221 222 219 216 218 219 218 218 219 219 220 223 223 224 227 231 230 228 228 229 230 230 231 233 236 239 242 241 240 240 238 239 243 245 244 244 243 242 238 235 236 239 239 242
249 247 244 241 238 237 235 233 232 231 231 232 234 235 232 229 225 224 225 225 223 227 230 226 223 225 228 228 225 222 222 223 223 223 223 224 225 226 227 231 233 230 224 221 221 219 215 214 217 217 219 221 222 222 222 221 222 226 228 229 231 234 234 232 230 231 231 230 230 233 236 237 239 240 241 244 246 248 250 251 250 245 240 241 245 247 249
245 243 241 238 236 235 233 232 231 230 230 230 232 234 234 231 226 223 223 222 222 225 228 226 223 225 228 228 227 223 220 221 222 224 223 224 224 223 224 228 228 225 224 221 218 218 215 213 214 215 215 217 221 222 221 220 221 224 226 226 228 230 232 231 230 230 231 231 231 233 236 239 241 241 241 245 248 250 251 252 252 251 252 252 253 256 257
242 240 238 236 234 232 231 231 230 229 229 229 230 232 234 233 229 224 223 222 221 224 227 224 223 226 227 226 227 226 220 218 220 222 222 224 226 223 221 222 220 218 222 222 219 219 219 216 216 217 217 217 219 220 221 221 223 225 226 226 226 227 227 227 228 229 231 234 238 239 240 243 245 245 244 246 250 252 252 253 253 253 257 259 259 259 260
240 237 235 234 233 231 229 229 229 228 227 228 228 230 231 233 232 227 224 222 222 223 225 223 222 225 227 226 225 225 222 218 218 220 220 223 227 225 220 219 218 217 220 222 221 220 220 219 220 221 222 222 221 222 222 222 223 225 226 224 225 229 230 229 229 230 231 233 237 240 243 244 246 249 251 252 252 252 252 254 257 258 261 264 265 264 262
237 234 233 233 231 229 227 227 227 226 226 226 227 227 228 229 231 229 225 221 221 222 222 223 222 223 225 226 223 222 222 219 218 219 219 221 226 225 219 218 220 219 220 222 222 221 222 222 222 225 227 227 226 227 227 226 226 228 230 229 229 233 237 238 237 237 235 233 234 238 241 244 247 250 254 256 255 254 252 251 254 259 263 266 268 268 266
234 231 231 232 229 226 225 225 225 224 223 224 225 225 225 225 227 229 226 220 219 219 219 221 222 221 222 224 222 220 220 219 219 219 218 220 224 224 221 220 221 221 220 221 220 220 222 223 224 225 228 230 231 232 233 234 233 233 235 237 237 238 240 242 242 243 242 242 242 241 243 246 249 252 256 257 257 255 252 248 248 252 258 262 264 265 266
232 230 230 231 228 225 223 223 222 222 221 221 222 222 222 222 224 227 226 221 217 217 217 218 220 220 219 221 223 221 219 219 220 220 217 217 222 224 223 222 222 220 219 220 221 220 220 222 224 225 227 230 231 233 234 236 237 238 239 241 242 243 245 245 245 245 246 248 248 248 247 247 249 253 257 260 260 259 258 255 253 254 258 261 262 262 263
231 229 228 229 227 223 222 221 220 220 219 218 219 219 218 220 222 225 226 222 216 215 215 216 218 219 219 220 223 224 222 220 221 220 215 215 219 223 222 221 221 219 218 219 221 222 221 221 222 224 226 229 231 233 235 236 238 240 241 242 243 245 247 249 250 251 251 251 251 253 255 254 251 251 256 261 262 263 263 261 260 260 260 261 262 262 264
229 227 226 227 225 221 220 219 219 219 219 217 217 216 216 218 220 223 227 223 216 212 213 214 215 216 216 217 220 223 223 222 223 220 213 212 216 219 218 218 219 219 218 219 220 221 221 221 222 224 227 228 229 232 235 236 237 239 242 243 244 245 247 249 251 254 257 257 258 259 261 261 255 251 253 257 259 260 261 260 260 261 261 261 262 264 265
227 225 224 225 223 219 217 217 217 218 218 216 215 214 214 215 218 221 225 222 214 210 210 211 213 212 212 213 215 218 220 220 222 220 214 211 212 214 214 215 218 218 218 219 221 221 221 222 223 227 229 229 228 229 232 235 236 238 240 242 243 245 247 248 249 252 255 257 257 256 257 258 256 253 251 251 250 254 260 264 265 264 263 262 264 266 266
224 222 222 224 221 216 214 215 215 215 214 213 213 211 210 212 215 218 222 219 212 208 207 208 209 210 210 211 212 214 216 217 218 219 215 211 211 210 209 212 215 216 217 219 220 221 221 223 224 227 229 230 230 231 233 235 237 239 241 242 243 243 244 245 246 248 250 251 253 255 255 255 257 257 255 253 254 260 266 269 269 267 266 264 263 263 264
221 219 221 223 219 212 211 212 212 211 210 209 209 208 207 209 212 215 219 218 210 206 205 205 206 207 207 209 210 211 212 213 213 214 213 211 209 208 207 209 213 214 215 218 220 220 221 223 226 229 230 230 231 234 236 238 240 242 243 245 245 246 247 245 244 245 248 250 253 256 257 258 261 264 264 263 264 266 267 266 265 264 264 264 264 265 266
218 217 219 222 217 210 208 208 207 206 205 204 205 206 204 205 208 210 214 215 210 205 203 202 201 203 205 207 208 209 209 210 210 210 210 209 208 206 205 207 210 212 213 215 218 218 219 221 226 230 231 231 231 234 236 237 240 244 246 247 247 248 250 250 249 248 250 252 254 258 259 260 263 267 268 268 268 268 267 265 264 263 264 265 267 268 268
216 215 216 219 216 208 205 204 202 200 200 200 202 202 200 201 204 205 208 210 207 203 201 199 198 199 201 204 207 208 208 209 208 207 208 207 207 206 204 203 206 209 211 213 214 214 215 218 223 228 230 230 229 231 233 232 235 241 247 249 249 249 250 252 254 255 256 256 255 255 256 256 258 262 265 266 267 268 269 269 270 270 270 271 271 271 271
213 212 211 215 213 205 201 199 197 196 197 198 199 199 197 199 201 202 204 206 204 201 199 197 196 196 196 198 203 204 205 207 207 206 206 206 206 206 205 203 202 205 208 211 213 214 215 217 221 226 230 229 228 230 232 231 232 236 243 248 251 252 250 249 249 251 254 257 257 257 258 259 260 261 262 262 263 267 270 272 274 275 275 275 275 276 276
207 206 207 211 208 201 196 193 193 193 195 196 196 196 195 196 196 196 198 200 199 197 196 195 195 193 192 194 198 200 201 204 205 205 205 205 205 207 208 207 206 206 207 209 211 213 216 217 220 226 229 228 226 228 229 229 229 230 235 241 247 250 251 251 249 247 249 253 259 263 265 267 266 265 264 264 264 266 268 270 271 273 274 275 276 276 276
199 198 202 206 201 194 190 190 190 191 192 193 192 192 192 192 193 192 192 194 194 193 192 192 193 192 191 194 196 196 197 199 201 202 203 202 202 204 206 206 208 209 209 210 210 211 214 216 220 225 229 228 226 226 228 229 229 229 231 237 244 249 253 255 255 254 255 257 260 261 262 263 265 266 267 267 267 267 268 268 268 269 270 271 272 274 275
192 192 196 198 192 187 185 187 188 189 189 189 189 189 188 188 189 188 188 190 190 189 189 189 189 188 189 192 195 195 196 195 195 197 199 200 200 202 203 203 205 207 207 210 211 211 212 215 219 223 228 230 228 226 228 230 233 234 236 241 246 250 254 257 260 263 267 270 269 264 261 261 262 263 263 264 264 265 266 266 267 267 268 269 271 272 273
186 187 192 193 188 183 182 184 185 185 185 186 186 186 184 184 185 185 185 186 186 186 186 186 186 184 185 188 192 194 195 194 192 192 193 195 198 201 202 202 203 206 207 210 212 211 210 215 219 222 227 232 232 229 230 233 236 239 241 243 246 249 254 259 263 266 268 269 267 264 262 261 261 262 263 264 265 266 267 268 269 270 271 271 272 273 273
183 184 187 189 186 182 180 181 183 183 183 183 183 181 180 180 180 181 180 181 183 184 184 184 185 184 182 183 189 193 192 192 191 191 190 191 194 199 202 201 201 205 207 210 213 212 209 212 216 218 222 228 232 232 232 234 237 241 242 243 246 249 253 256 257 258 258 259 260 262 264 265 266 267 268 269 270 270 270 270 271 271 272 272 272 273 273
180 182 183 185 184 181 178 178 181 182 181 180 178 177 177 177 177 177 176 176 178 181 182 183 184 183 180 179 184 188 189 189 190 190 192 192 193 196 198 196 197 202 205 207 210 211 210 212 216 218 220 225 229 232 234 235 239 244 246 248 249 250 252 253 255 257 259 260 262 264 266 268 269 269 269 270 270 271 271 272 272 272 272 273 272 273 273
177 179 180 181 182 180 177 176 178 180 179 177 175 174 173 173 172 173 174 173 173 175 179 182 183 183 183 182 179 179 184 188 187 187 189 193 195 196 192 189 193 200 203 204 207 209 209 211 216 220 225 229 231 234 236 238 240 245 249 251 251 251 251 252 255 258 261 263 265 266 268 269 269 270 270 270 271 271 272 272 272 272 272 272 273 272 272
175 175 175 177 180 179 176 174 175 177 176 174 172 170 170 169 168 168 170 173 172 171 173 178 182 185 187 185 178 176 182 186 185 185 188 192 195 195 189 187 193 199 198 198 202 205 206 210 215 220 226 231 233 234 237 239 240 243 246 248 250 252 253 254 256 258 261 263 265 266 267 269 270 272 272 273 273 273 273 272 272 271 271 271 270 270 270
170 171 170 173 178 178 175 173 173 173 173 172 170 167 166 167 168 167 167 170 173 173 171 174 179 185 186 183 179 179 184 185 183 184 187 190 192 191 189 190 197 200 198 196 201 205 207 211 215 218 223 229 231 232 234 237 239 241 243 246 249 252 255 256 258 260 262 264 266 267 269 270 271 272 272 273 273 273 272 272 271 271 270 269 268 268 269
165 165 164 166 172 175 174 171 170 170 170 170 168 165 163 165 168 169 168 167 170 174 176 176 178 180 180 178 178 181 184 183 182 183 184 186 189 191 192 195 199 201 198 198 202 208 212 215 216 217 219 222 225 227 230 233 236 239 242 245 249 252 256 258 261 264 266 267 269 269 270 269 269 270 270 271 272 273 273 272 273 273 272 271 271 271 270
159 159 157 157 164 170 171 169 167 167 168 167 165 165 165 165 166 169 170 168 167 174 180 180 177 176 175 175 176 178 180 181 181 180 181 184 187 192 196 200 201 200 197 198 204 210 213 215 216 218 220 222 224 227 229 232 235 240 244 248 252 255 258 261 265 267 268 269 269 270 271 272 273 274 276 277 278 278 278 277 277 277 276 276 275 275 274
155 156 154 154 159 166 168 166 164 164 164 162 161 164 168 168 166 168 171 171 171 175 179 178 175 174 175 175 176 176 176 177 178 179 181 182 184 188 193 196 196 194 194 198 205 211 212 210 213 219 225 227 228 231 233 237 240 245 248 251 255 258 261 264 267 269 271 273 275 277 279 281 283 284 284 285 285 284 283 283 281 280 279 278 277 276 275
152 152 152 153 156 160 163 163 162 162 161 159 158 160 165 166 165 167 171 174 175 175 174 173 174 175 177 178 179 178 176 174 175 178 182 182 181 181 184 186 189 192 196 200 204 207 207 206 212 220 225 230 234 240 245 249 252 254 257 259 261 264 267 270 273 275 278 281 283 285 286 288 289 290 290 289 288 286 285 284 283 281 279 277 276 274 273
148 148 149 151 153 154 157 159 160 160 161 161 160 159 161 162 163 166 169 172 174 175 174 174 176 178 179 180 181 181 180 178 178 182 185 183 178 179 185 189 192 196 200 204 207 208 209 212 218 224 230 237 246 253 257 260 264 267 270 272 275 277 278 281 283 284 286 287 288 288 290 292 294 296 296 294 291 289 289 289 288 287 284 279 275 271 268
147 146 145 146 148 150 154 157 158 157 157 158 158 157 158 159 163 167 168 170 173 176 178 178 179 181 183 184 183 183 184 183 184 186 189 187 184 187 193 197 199 200 203 207 212 216 220 224 228 233 238 244 250 256 261 266 272 276 279 282 284 287 289 291 291 290 290 289 288 289 292 296 301 304 304 301 296 294 295 297 299 299 297 291 281 272 265
146 145 142 140 141 145 151 155 156 154 154 155 157 159 160 161 164 168 171 173 175 176 178 181 182 183 185 186 187 187 188 187 187 189 192 193 194 198 202 204 206 208 211 214 219 224 230 235 238 241 245 249 254 260 266 272 277 281 283 286 288 290 293 294 294 294 292 291 290 293 298 301 304 307 309 308 304 300 301 305 307 307 309 309 300 284 271
144 142 140 139 139 141 144 147 150 152 155 158 161 163 164 166 170 173 175 177 179 180 181 184 185 186 188 189 190 190 189 189 191 194 197 198 200 204 207 210 213 217 220 223 226 231 237 242 246 249 253 258 264 270 275 278 280 281 283 285 287 289 291 294 297 297 296 295 296 299 302 303 305 308 311 314 314 312 315 321 323 320 321 328 332 327 313
143 142 141 140 140 141 141 141 145 152 156 158 159 162 166 171 176 178 179 180 183 185 187 187 187 188 190 191 189 189 189 190 195 200 203 204 206 210 213 217 220 224 228 232 236 241 245 249 253 258 264 269 273 276 277 277 278 279 281 283 285 287 290 295 299 302 302 302 302 301 302 306 311 314 317 319 321 323 327 333 336 334 330 331 334 339 344
Height
5738 5738 5738 5738 5739 5739 5740 5740 5741 5742 5742 5743 5745 5746 5747 5748 5747 5747 5750 5753 5754 5755 5757 5759 5761 5764 5767 5769 5771 5774 5776 5779 5782 5784 5786 5788 5790 5793 5796 5798 5801 5803 5805 5809 5814 5819 5822 5823 5826 5829 5830 5831 5834 5838 5840 5842 5844 5846 5850 5854 5857 5859 5860 5864 5868 5868 5868 5872 5874 5874 5877 5879 5880 5882 5884 5886 5887 5888 5891 5892 5892 5893 5893 5894 5895 5895 5891
5731 5731 5731 5732 5732 5733 5733 5734 5735 5736 5737 5737 5739 5740 5742 5743 5742 5742 5745 5748 5749 5751 5753 5755 5758 5760 5763 5765 5767 5770 5772 5775 5778 5780 5782 5784 5786 5789 5793 5797 5799 5801 5804 5806 5810 5814 5817 5818 5821 5826 5830 5831 5832 5836 5839 5839 5841 5843 5846 5851 5854 5855 5856 5859 5864 5865 5865 5868 5870 5870 5871 5873 5877 5879 5882 5885 5887 5887 5887 5888 5888 5889 5890 5891 5893 5893 5891
5724 5724 5725 5725 5726 5726 5727 5728 5729 5730 5731 5732 5733 5734 5736 5738 5737 5737 5739 5742 5744 5746 5748 5751 5753 5756 5758 5760 5763 5765 5768 5771 5774 5776 5779 5781 5782 5785 5788 5792 5795 5797 5800 5803 5806 5809 5812 5814 5816 5819 5826 5831 5833 5835 5836 5837 5838 5841 5844 5848 5851 5853 5854 5856 5858 5859 5859 5861 5865 5868 5868 5869 5873 5876 5879 5882 5884 5885 5885 5886 5886 5886 5887 5889 5890 5890 5889
5717 5717 5718 5718 5719 5720 5721 5722 5723 5724 5725 5726 5727 5729 5730 5732 5732 5731 5733 5736 5739 5741 5743 5746 5748 5751 5753 5755 5758 5760 5763 5767 5771 5773 5776 5778 5780 5781 5782 5785 5788 5790 5794 5799 5803 5807 5810 5812 5812 5813 5818 5826 5830 5833 5835 5835 5836 5839 5843 5846 5848 5851 5853 5854 5856 5858 5857 5859 5864 5867 5867 5868 5870 5873 5877 5879 5880 5881 5882 5883 5884 5884 5885 5886 5887 5888 5887
5710 5710 5711 5712 5712 5713 5714 5715 5716 5718 5719 5720 5721 5723 5725 5725 5725 5726 5729 5732 5735 5737 5738 5740 5743 5746 5749 5751 5754 5756 5759 5762 5766 5769 5773 5777 5779 5778 5777 5780 5783 5786 5789 5793 5797 5801 5805 5808 5808 5807 5809 5814 5819 5824 5829 5832 5834 5836 5840 5842 5845 5848 5849 5851 5854 5857 5857 5859 5863 5865 5866 5867 5869 5871 5875 5876 5877 5878 5879 5880 5881 5882 5883 5883 5883 5884 5885
5703 5703 5704 5705 5706 5707 5708 5708 5710 5711 5713 5714 5715 5717 5719 5720 5720 5722 5725 5727 5730 5733 5735 5736 5738 5741 5743 5745 5749 5752 5755 5758 5761 5764 5768 5773 5774 5774 5775 5778 5781 5785 5788 5790 5793 5797 5800 5802 5802 5801 5802 5806 5813 5818 5823 5828 5831 5833 5835 5838 5841 5844 5846 5848 5852 5854 5856 5857 5859 5862 5863 5865 5867 5869 5872 5874 5874 5875 5876 5877 5879 5880 5880 5880 5880 5881 5881
5695 5696 5697 5698 5699 5700 5701 5702 5703 5704 5706 5708 5709 5711 5713 5715 5716 5717 5720 5722 5725 5729 5731 5732 5734 5737 5738 5740 5744 5747 5750 5754 5758 5760 5762 5764 5766 5769 5774 5778 5781 5785 5788 5789 5792 5795 5796 5797 5798 5798 5799 5804 5812 5817 5820 5823 5825 5828 5831 5833 5836 5839 5842 5845 5847 5850 5852 5854 5855 5857 5860 5863 5865 5866 5868 5871 5872 5873 5874 5875 5876 5876 5876 5877 5878 5877 5878
5688 5689 5690 5691 5692 5693 5694 5695 5696 5698 5699 5701 5703 5705 5707 5709 5710 5712 5714 5717 5720 5723 5726 5727 5729 5732 5735 5738 5740 5742 5745 5750 5753 5754 5754 5756 5760 5764 5769 5774 5778 5782 5785 5785 5787 5788 5788 5788 5790 5794 5797 5801 5807 5813 5815 5816 5818 5822 5828 5831 5831 5834 5837 5839 5841 5844 5846 5849 5851 5854 5856 5858 5860 5862 5864 5866 5868 5870 5872 5873 5874 5874 5874 5875 5874 5874 5875
5680 5681 5682 5683 5684 5685 5686 5688 5689 5691 5692 5694 5696 5699 5701 5702 5705 5707 5708 5712 5716 5717 5720 5721 5723 5727 5732 5734 5736 5737 5740 5743 5746 5747 5749 5751 5753 5757 5762 5769 5773 5775 5777 5777 5777 5778 5778 5780 5783 5789 5795 5799 5803 5806 5809 5812 5814 5817 5823 5826 5826 5828 5831 5834 5837 5839 5841 5844 5848 5852 5854 5854 5856 5858 5861 5863 5865 5867 5869 5870 5872 5871 5871 5871 5870 5869 5871
5672 5673 5674 5675 5676 5678 5679 5681 5682 5684 5686 5688 5690 5693 5695 5696 5699 5701 5703 5707 5710 5712 5714 5716 5717 5720 5723 5725 5727 5730 5733 5736 5740 5743 5745 5747 5749 5751 5755 5760 5764 5766 5768 5768 5768 5770 5772 5774 5779 5786 5793 5796 5798 5801 5804 5808 5809 5811 5815 5819 5821 5823 5826 5829 5832 5834 5837 5841 5844 5848 5852 5853 5853 5855 5858 5860 5862 5863 5864 5866 5867 5866 5864 5865 5865 5865 5867
5664 5664 5666 5667 5668 5670 5672 5674 5676 5677 5679 5681 5683 5686 5689 5690 5693 5696 5698 5702 5705 5706 5708 5712 5712 5714 5717 5720 5722 5724 5726 5730 5733 5736 5739 5742 5745 5748 5750 5753 5756 5758 5760 5761 5762 5765 5768 5771 5776 5783 5789 5792 5794 5796 5800 5803 5804 5805 5809 5813 5816 5819 5822 5825 5828 5830 5834 5838 5840 5842 5844 5846 5848 5851 5854 5855 5855 5855 5857 5860 5860 5858 5856 5858 5859 5860 5862
5655 5656 5658 5659 5661 5663 5665 5667 5669 5671 5672 5675 5677 5680 5682 5685 5687 5690 5693 5696 5699 5700 5703 5706 5707 5709 5714 5718 5720 5721 5722 5723 5726 5729 5732 5736 5740 5743 5745 5747 5750 5752 5754 5757 5760 5763 5766 5771 5775 5779 5784 5787 5788 5790 5795 5798 5800 5802 5804 5807 5809 5814 5817 5820 5823 5826 5830 5834 5836 5835 5836 5838 5841 5845 5849 5849 5849 5850 5853 5856 5855 5852 5852 5852 5853 5853 5855
5647 5648 5650 5652 5653 5656 5658 5660 5662 5664 5666 5668 5671 5673 5676 5679 5682 5684 5687 5691 5694 5694 5696 5700 5702 5706 5711 5713 5715 5716 5716 5717 5720 5724 5727 5731 5735 5738 5740 5743 5746 5750 5752 5754 5759 5763 5766 5770 5773 5776 5780 5782 5783 5786 5789 5793 5797 5799 5801 5802 5803 5807 5811 5814 5817 5820 5823 5828 5829 5828 5829 5832 5834 5839 5842 5843 5844 5846 5850 5851 5850 5849 5849 5847 5845 5846 5848
5639 5641 5643 5644 5646 5649 5651 5653 5656 5658 5660 5662 5665 5667 5670 5673 5676 5678 5681 5685 5688 5689 5690 5695 5699 5703 5706 5707 5709 5710 5711 5713 5718 5722 5724 5727 5731 5734 5735 5738 5742 5745 5748 5751 5756 5760 5763 5767 5770 5773 5776 5778 5780 5783 5786 5789 5792 5796 5799 5800 5801 5803 5806 5809 5813 5815 5818 5821 5823 5823 5825 5827 5830 5834 5837 5838 5841 5844 5845 5845 5846 5847 5846 5843 5841 5841 5843
5632 5634 5635 5637 5639 5642 5644 5647 5649 5651 5654 5656 5659 5661 5664 5667 5670 5672 5675 5679 5682 5683 5685 5690 5695 5697 5698 5699 5702 5705 5708 5713 5718 5721 5722 5724 5726 5729 5732 5735 5737 5741 5745 5749 5753 5756 5759 5764 5767 5769 5772 5775 5778 5781 5784 5787 5789 5792 5795 5797 5800 5802 5804 5806 5808 5811 5813 5816 5818 5820 5822 5824 5826 5830 5833 5835 5837 5840 5840 5840 5842 5843 5843 5840 5838 5837 5838
5624 5626 5629 5631 5633 5635 5638 5640 5642 5645 5648 5650 5653 5655 5658 5661 5664 5667 5669 5673 5677 5678 5681 5686 5690 5691 5691 5694 5698 5703 5707 5710 5714 5717 5718 5721 5722 5723 5726 5729 5731 5736 5741 5744 5748 5751 5755 5759 5763 5764 5767 5772 5775 5778 5781 5784 5787 5790 5792 5795 5797 5800 5801 5803 5805 5807 5809 5812 5814 5816 5819 5820 5822 5826 5829 5830 5832 5833 5834 5835 5837 5838 5838 5836 5835 5835 5834
5618 5620 5622 5624 5626 5629 5631 5634 5636 5639 5641 5644 5647 5649 5652 5655 5658 5661 5664 5668 5672 5674 5676 5681 5685 5685 5688 5692 5696 5699 5702 5706 5710 5713 5714 5716 5719 5721 5723 5724 5726 5733 5738 5740 5743 5747 5750 5754 5758 5762 5765 5769 5773 5776 5778 5781 5784 5786 5789 5792 5795 5797 5797 5798 5800 5802 5805 5807 5809 5811 5815 5816 5818 5821 5823 5824 5825 5826 5827 5828 5830 5832 5833 5831 5831 5832 5831
5611 5613 5616 5618 5620 5623 5625 5627 5630 5633 5636 5638 5641 5643 5646 5649 5652 5656 5659 5663 5667 5669 5671 5676 5680 5681 5684 5687 5690 5694 5698 5701 5706 5709 5711 5713 5716 5720 5723 5723 5725 5731 5735 5737 5739 5742 5745 5750 5755 5759 5763 5766 5770 5772 5774 5777 5780 5783 5785 5788 5790 5792 5792 5793 5795 5797 5800 5802 5804 5807 5810 5812 5814 5816 5815 5816 5818 5820 5821 5822 5822 5825 5827 5826 5825 5827 5827
5605 5607 5610 5612 5614 5617 5619 5622 5624 5627 5630 5632 5635 5638 5641 5644 5647 5652 5655 5659 5664 5665 5666 5671 5674 5676 5679 5681 5684 5689 5694 5696 5700 5704 5707 5710 5713 5717 5719 5719 5721 5727 5732 5734 5736 5740 5744 5748 5752 5756 5760 5763 5766 5768 5771 5774 5778 5780 5781 5783 5785 5787 5788 5789 5791 5792 5794 5797 5798 5801 5803 5805 5807 5808 5808 5810 5812 5814 5815 5816 5816 5818 5820 5820 5820 5822 5823
5599 5601 5604 5606 5609 5611 5614 5616 5619 5621 5624 5627 5630 5632 5636 5640 5643 5647 5650 5655 5659 5661 5661 5666 5670 5672 5673 5676 5679 5683 5688 5692 5696 5699 5703 5705 5708 5711 5714 5715 5719 5725 5729 5731 5734 5737 5741 5745 5748 5753 5756 5759 5761 5764 5767 5771 5773 5773 5774 5777 5780 5782 5784 5786 5787 5788 5790 5791 5792 5794 5796 5797 5799 5802 5804 5805 5806 5807 5808 5810 5811 5812 5814 5816 5816 5817 5820
5594 5596 5598 5601 5603 5606 5609 5611 5614 5616 5619 5622 5625 5628 5632 5635 5638 5642 5645 5649 5654 5655 5657 5662 5666 5666 5667 5671 5674 5678 5683 5687 5691 5695 5699 5701 5702 5706 5709 5712 5717 5722 5725 5728 5731 5734 5737 5740 5744 5747 5750 5752 5755 5758 5762 5766 5767 5766 5767 5770 5773 5776 5779 5781 5783 5784 5786 5787 5787 5788 5789 5790 5792 5796 5798 5799 5800 5801 5802 5804 5805 5805 5807 5810 5811 5812 5815
5588 5591 5593 5596 5598 5601 5604 5606 5609 5612 5615 5618 5621 5624 5627 5630 5633 5637 5641 5645 5648 5650 5653 5658 5661 5661 5663 5667 5670 5673 5677 5681 5686 5691 5695 5696 5698 5701 5704 5708 5713 5718 5721 5725 5728 5730 5733 5737 5739 5741 5744 5747 5749 5753 5758 5761 5762 5763 5766 5768 5768 5770 5773 5776 5777 5780 5783 5783 5782 5783 5784 5784 5786 5789 5791 5793 5795 5797 5799 5801 5801 5800 5800 5804 5806 5807 5809
5583 5586 5588 5591 5593 5596 5599 5602 5605 5608 5610 5613 5617 5620 5623 5626 5630 5633 5636 5640 5644 5647 5649 5653 5656 5657 5659 5663 5666 5669 5672 5677 5682 5686 5690 5692 5694 5697 5700 5705 5710 5714 5718 5721 5724 5727 5730 5733 5736 5738 5741 5744 5747 5750 5753 5756 5758 5761 5763 5765 5765 5766 5768 5772 5774 5776 5778 5778 5777 5779 5779 5780 5782 5783 5784 5788 5792 5793 5796 5798 5797 5796 5797 5799 5801 5802 5804
5579 5581 5583 5586 5589 5592 5594 5597 5600 5604 5607 5610 5613 5616 5619 5623 5625 5628 5631 5635 5640 5643 5645 5649 5651 5653 5656 5658 5661 5665 5669 5673 5677 5681 5685 5688 5690 5693 5697 5702 5706 5711 5714 5717 5720 5724 5727 5729 5732 5736 5738 5740 5744 5747 5749 5752 5756 5758 5759 5760 5762 5763 5765 5769 5770 5772 5773 5772 5771 5774 5776 5777 5779 5780 5780 5784 5788 5789 5791 5794 5794 5795 5796 5796 5796 5797 5798
5574 5576 5579 5582 5584 5587 5590 5593 5597 5600 5603 5606 5609 5612 5616 5619 5621 5623 5627 5631 5635 5639 5642 5644 5647 5649 5653 5655 5658 5662 5665 5669 5672 5676 5680 5684 5686 5689 5693 5698 5703 5707 5711 5713 5716 5720 5723 5725 5729 5732 5734 5736 5740 5743 5746 5749 5752 5755 5756 5757 5759 5760 5762 5765 5767 5768 5770 5769 5768 5770 5774 5775 5776 5777 5778 5781 5784 5785 5786 5789 5792 5793 5793 5793 5793 5793 5793
5570 5572 5575 5577 5580 5583 5586 5590 5593 5596 5600 5603 5606 5609 5612 5615 5617 5620 5623 5627 5631 5635 5638 5641 5645 5648 5652 5654 5657 5659 5662 5665 5668 5672 5676 5679 5682 5685 5690 5695 5699 5703 5707 5709 5712 5715 5718 5721 5725 5728 5730 5732 5736 5738 5741 5744 5747 5751 5753 5754 5756 5757 5758 5760 5763 5765 5766 5766 5766 5767 5770 5773 5774 5775 5776 5778 5780 5780 5782 5784 5787 5789 5789 5789 5790 5790 5790
5566 5568 5571 5574 5576 5579 5582 5586 5590 5593 5597 5600 5603 5605 5608 5611 5614 5617 5620 5623 5627 5632 5636 5639 5643 5646 5649 5651 5653 5655 5658 5662 5665 5668 5671 5675 5678 5682 5687 5692 5695 5699 5703 5705 5708 5712 5715 5718 5721 5723 5725 5728 5732 5734 5737 5739 5743 5746 5747 5748 5751 5754 5754 5756 5759 5760 5760 5763 5764 5765 5767 5770 5771 5772 5773 5774 5775 5775 5776 5778 5781 5783 5784 5784 5784 5785 5785
5562 5565 5568 5570 5573 5576 5579 5583 5586 5590 5593 5597 5599 5602 5605 5608 5611 5614 5617 5621 5625 5629 5632 5636 5639 5642 5646 5648 5651 5653 5655 5658 5661 5664 5667 5671 5675 5679 5684 5688 5691 5695 5699 5702 5705 5708 5712 5715 5717 5718 5721 5724 5728 5730 5732 5735 5739 5741 5740 5741 5745 5749 5750 5752 5755 5756 5756 5759 5762 5763 5764 5765 5766 5767 5767 5768 5770 5770 5771 5773 5775 5777 5778 5778 5779 5780 5780
5559 5562 5564 5567 5569 5573 5576 5580 5583 5587 5590 5594 5597 5599 5603 5606 5609 5612 5615 5618 5621 5625 5629 5633 5636 5640 5644 5646 5649 5651 5653 5655 5658 5661 5664 5668 5672 5676 5681 5684 5687 5691 5695 5698 5701 5704 5708 5711 5713 5715 5717 5721 5724 5726 5728 5731 5734 5734 5734 5737 5741 5744 5746 5748 5750 5753 5754 5756 5758 5759 5759 5760 5761 5761 5761 5764 5766 5767 5767 5770 5772 5773 5774 5775 5775 5775 5775
5556 5559 5561 5564 5566 5570 5573 5577 5580 5584 5587 5591 5594 5597 5601 5604 5606 5609 5612 5614 5618 5622 5627 5631 5634 5638 5641 5643 5646 5648 5650 5653 5656 5658 5661 5665 5669 5674 5677 5681 5684 5687 5691 5695 5698 5701 5705 5707 5709 5710 5713 5717 5721 5724 5726 5729 5729 5727 5729 5733 5736 5738 5741 5744 5746 5749 5751 5752 5754 5755 5755 5755 5756 5756 5757 5761 5763 5764 5765 5767 5768 5768 5769 5769 5770 5770 5769
5553 5556 5558 5561 5564 5567 5571 5574 5578 5581 5585 5589 5592 5595 5599 5602 5604 5607 5610 5612 5615 5620 5624 5628 5632 5635 5638 5641 5644 5646 5649 5651 5654 5657 5660 5663 5667 5671 5674 5678 5681 5684 5688 5691 5694 5698 5702 5704 5705 5707 5711 5715 5719 5722 5725 5727 5725 5723 5725 5729 5731 5733 5736 5739 5742 5745 5747 5748 5750 5750 5750 5751 5753 5753 5754 5757 5758 5758 5760 5761 5762 5763 5763 5763 5764 5764 5764
5551 5553 5556 5559 5562 5565 5568 5572 5576 5579 5583 5586 5590 5593 5596 5599 5602 5605 5608 5610 5613 5617 5622 5626 5629 5632 5636 5639 5642 5644 5647 5649 5652 5655 5658 5661 5665 5668 5672 5675 5678 5682 5685 5689 5692 5695 5699 5701 5702 5704 5708 5713 5717 5719 5722 5724 5722 5720 5722 5726 5728 5729 5732 5735 5738 5740 5742 5744 5746 5747 5747 5749 5750 5749 5749 5751 5751 5752 5753 5754 5755 5756 5757 5758 5759 5758 5758
5548 5551 5554 5557 5560 5563 5566 5570 5574 5578 5581 5585 5588 5591 5595 5597 5600 5602 5605 5608 5611 5615 5619 5623 5627 5630 5634 5637 5640 5643 5645 5648 5650 5653 5656 5659 5663 5666 5669 5673 5676 5679 5682 5685 5688 5692 5695 5697 5699 5700 5703 5708 5713 5715 5717 5720 5720 5719 5720 5723 5724 5725 5729 5732 5733 5735 5736 5739 5743 5744 5745 5746 5746 5746 5746 5746 5746 5746 5746 5747 5748 5749 5750 5751 5751 5752 5752
5547 5549 5552 5556 5558 5561 5565 5569 5573 5576 5580 5583 5586 5590 5593 5595 5598 5601 5604 5607 5609 5613 5617 5621 5625 5628 5632 5635 5638 5641 5643 5646 5648 5651 5654 5657 5661 5664 5667 5670 5673 5677 5680 5683 5686 5689 5691 5694 5696 5697 5700 5705 5709 5711 5713 5716 5717 5718 5719 5720 5719 5720 5723 5726 5729 5731 5732 5734 5735 5737 5739 5741 5741 5742 5743 5743 5742 5742 5742 5742 5743 5742 5742 5743 5744 5744 5745
5545 5548 5551 5554 5557 5560 5564 5568 5572 5575 5578 5581 5585 5588 5591 5594 5597 5600 5603 5605 5608 5612 5616 5619 5622 5626 5630 5633 5636 5639 5642 5644 5647 5650 5653 5656 5659 5662 5665 5668 5671 5674 5677 5680 5683 5686 5689 5692 5694 5694 5697 5702 5705 5707 5709 5712 5713 5715 5716 5716 5715 5716 5716 5718 5722 5727 5730 5731 5732 5732 5733 5734 5734 5735 5737 5738 5738 5739 5739 5739 5738 5737 5737 5737 5737 5737 5738
5544 5547 5550 5552 5555 5559 5563 5567 5571 5574 5577 5580 5584 5587 5590 5593 5596 5599 5602 5604 5607 5611 5614 5618 5621 5625 5629 5632 5635 5637 5640 5643 5646 5649 5652 5655 5658 5661 5664 5667 5669 5672 5675 5678 5680 5683 5686 5689 5690 5692 5694 5698 5701 5703 5705 5706 5707 5708 5710 5711 5713 5714 5713 5714 5717 5721 5725 5728 5730 5730 5729 5728 5729 5730 5731 5732 5732 5733 5733 5733 5733 5732 5732 5732 5731 5731 5732
5544 5546 5549 5551 5554 5557 5562 5566 5569 5573 5577 5580 5583 5586 5589 5592 5595 5598 5601 5603 5606 5610 5613 5616 5620 5624 5628 5631 5634 5636 5639 5641 5644 5647 5650 5654 5656 5659 5662 5664 5667 5670 5673 5675 5677 5680 5683 5686 5688 5690 5692 5694 5696 5699 5700 5699 5701 5704 5708 5710 5712 5712 5711 5712 5715 5717 5719 5721 5723 5723 5723 5724 5724 5724 5725 5725 5726 5726 5726 5726 5727 5727 5726 5726 5726 5726 5726
5543 5546 5548 5551 5553 5557 5561 5565 5569 5572 5576 5579 5582 5585 5588 5591 5594 5597 5600 5603 5606 5609 5612 5616 5619 5622 5625 5629 5632 5635 5638 5641 5644 5646 5648 5652 5655 5657 5660 5663 5665 5668 5671 5673 5676 5679 5682 5684 5686 5688 5689 5690 5692 5694 5695 5696 5700 5703 5706 5707 5708 5709 5710 5712 5714 5714 5714 5714 5714 5715 5716 5718 5718 5718 5719 5719 5720 5720 5720 5720 5720 5720 5720 5720 5720 5720 5719
5542 5545 5548 5550 5553 5557 5561 5565 5569 5572 5575 5579 5582 5585 5588 5591 5594 5597 5600 5602 5605 5608 5611 5615 5618 5621 5625 5628 5631 5634 5637 5640 5643 5645 5647 5650 5653 5655 5658 5661 5664 5667 5669 5672 5674 5677 5679 5681 5683 5684 5686 5686 5688 5689 5691 5695 5698 5699 5701 5702 5704 5706 5708 5709 5709 5709 5709 5709 5709 5709 5711 5712 5713 5713 5713 5713 5713 5714 5714 5714 5713 5713 5713 5713 5713 5713 5713
5542 5545 5548 5550 5553 5557 5561 5565 5569 5572 5575 5579 5582 5585 5588 5591 5594 5596 5599 5602 5605 5608 5611 5614 5618 5621 5625 5628 5631 5633 5636 5638 5642 5645 5647 5650 5652 5654 5657 5660 5663 5665 5667 5669 5671 5674 5677 5679 5680 5681 5682 5683 5684 5686 5689 5693 5695 5696 5697 5699 5702 5703 5704 5704 5703 5704 5705 5705 5705 5706 5706 5707 5707 5707 5708 5707 5707 5707 5707 5707 5707 5707 5707 5707 5707 5707 5706
5542 5545 5548 5550 5553 5557 5561 5565 5569 5572 5576 5579 5582 5585 5588 5591 5594 5597 5600 5602 5604 5608 5611 5614 5617 5621 5624 5626 5629 5632 5635 5638 5641 5644 5647 5649 5651 5654 5657 5660 5662 5663 5665 5668 5670 5673 5675 5676 5677 5678 5679 5681 5683 5686 5688 5691 5693 5694 5695 5696 5697 5698 5699 5699 5699 5700 5700 5701 5701 5701 5701 5701 5701 5701 5701 5701 5701 5701 5701 5701 5701 5701 5700 5700 5700 5700 5699
5543 5545 5548 5551 5554 5558 5561 5565 5569 5573 5576 5580 5582 5586 5589 5592 5594 5597 5600 5603 5605 5608 5611 5614 5617 5620 5623 5625 5629 5631 5634 5637 5640 5643 5645 5648 5651 5654 5657 5659 5660 5661 5664 5667 5669 5671 5672 5673 5675 5677 5678 5680 5683 5686 5687 5689 5690 5691 5691 5692 5692 5693 5694 5695 5696 5696 5696 5696 5696 5696 5696 5696 5696 5695 5695 5695 5695 5695 5694 5694 5694 5694 5694 5693 5693 5692 5691
5543 5546 5549 5551 5555 5558 5562 5565 5569 5573 5577 5580 5583 5586 5590 5593 5595 5598 5600 5604 5607 5609 5611 5614 5616 5619 5622 5626 5629 5632 5634 5637 5640 5642 5645 5647 5650 5653 5655 5657 5658 5661 5664 5666 5667 5668 5670 5671 5674 5676 5677 5679 5682 5684 5685 5686 5687 5688 5688 5689 5689 5689 5690 5691 5692 5692 5692 5692 5692 5692 5692 5692 5691 5690 5689 5688 5687 5687 5687 5686 5686 5686 5685 5685 5685 5685 5684
5544 5547 5550 5552 5555 5559 5563 5566 5570 5573 5577 5580 5583 5586 5589 5593 5596 5599 5601 5604 5607 5610 5612 5614 5617 5620 5623 5626 5629 5631 5634 5637 5639 5642 5644 5646 5649 5651 5653 5655 5657 5660 5662 5664 5665 5666 5668 5670 5672 5674 5677 5678 5680 5682 5683 5683 5684 5684 5685 5685 5686 5687 5687 5687 5687 5688 5688 5688 5688 5687 5687 5686 5685 5684 5683 5681 5680 5680 5679 5678 5677 5677 5676 5676 5676 5676 5675
5546 5548 5551 5553 5556 5560 5563 5567 5570 5573 5577 5580 5584 5587 5590 5592 5596 5599 5602 5604 5608 5611 5613 5615 5618 5620 5623 5626 5628 5630 5633 5636 5639 5641 5643 5646 5648 5650 5652 5654 5657 5659 5661 5663 5663 5664 5666 5669 5672 5674 5675 5676 5677 5679 5679 5680 5680 5681 5682 5683 5683 5683 5683 5683 5683 5683 5683 5683 5682 5681 5680 5679 5678 5677 5676 5675 5674 5672 5671 5670 5669 5668 5668 5667 5667 5666 5665
5547 5550 5553 5555 5557 5560 5564 5567 5570 5574 5577 5581 5585 5588 5591 5593 5596 5599 5602 5605 5607 5610 5612 5615 5618 5621 5623 5626 5628 5630 5633 5635 5638 5641 5643 5645 5647 5649 5652 5654 5657 5659 5660 5661 5661 5663 5666 5669 5671 5672 5672 5673 5674 5675 5676 5677 5678 5678 5679 5679 5679 5679 5679 5679 5679 5678 5677 5677 5676 5675 5674 5673 5672 5671 5670 5668 5667 5665 5663 5662 5661 5660 5659 5658 5657 5657 5657
5549 5552 5554 5556 5558 5562 5565 5568 5571 5575 5578 5581 5585 5588 5592 5594 5597 5600 5603 5605 5608 5610 5613 5616 5619 5621 5623 5626 5628 5630 5633 5635 5638 5641 5643 5645 5648 5650 5652 5653 5655 5657 5658 5659 5660 5663 5665 5667 5668 5668 5669 5669 5670 5671 5672 5673 5674 5674 5674 5674 5674 5674 5674 5674 5673 5672 5672 5671 5670 5670 5669 5668 5667 5666 5664 5662 5660 5658 5656 5655 5653 5651 5650 5649 5648 5648 5648
5551 5554 5556 5558 5561 5563 5567 5570 5574 5577 5580 5583 5586 5589 5592 5595 5598 5601 5603 5606 5609 5611 5614 5616 5618 5621 5623 5626 5628 5630 5633 5636 5638 5640 5642 5645 5647 5649 5650 5652 5653 5655 5656 5658 5660 5662 5663 5664 5665 5665 5666 5667 5667 5668 5668 5669 5669 5669 5669 5669 5669 5668 5668 5668 5668 5667 5667 5666 5665 5664 5664 5663 5662 5661 5659 5656 5654 5652 5650 5648 5646 5643 5641 5639 5638 5637 5638
5554 5556 5559 5561 5563 5566 5568 5572 5575 5578 5582 5585 5588 5591 5593 5596 5598 5601 5604 5607 5609 5612 5614 5616 5619 5621 5624 5626 5628 5631 5633 5635 5638 5640 5642 5644 5646 5648 5649 5650 5652 5654 5655 5657 5658 5660 5661 5661 5662 5663 5664 5664 5665 5665 5665 5665 5665 5665 5665 5665 5665 5664 5664 5664 5663 5663 5662 5662 5661 5660 5660 5659 5658 5656 5653 5650 5648 5646 5644 5642 5640 5637 5634 5631 5629 5627 5628
5556 5559 5561 5564 5566 5569 5571 5574 5577 5580 5583 5587 5590 5592 5595 5597 5600 5602 5604 5607 5609 5612 5614 5616 5619 5621 5624 5626 5628 5630 5632 5635 5637 5639 5641 5643 5645 5646 5647 5649 5651 5652 5654 5655 5656 5657 5658 5659 5660 5661 5661 5662 5662 5662 5662 5662 5662 5662 5662 5662 5662 5661 5660 5660 5660 5659 5659 5658 5657 5656 5656 5655 5654 5652 5649 5646 5644 5642 5640 5638 5636 5633 5630 5628 5625 5623 5623
5559 5561 5564 5566 5569 5571 5574 5577 5579 5582 5585 5587 5590 5593 5595 5598 5600 5602 5605 5607 5610 5612 5614 5616 5618 5621 5623 5625 5627 5630 5632 5634 5636 5638 5639 5641 5643 5644 5646 5648 5649 5651 5652 5653 5654 5655 5656 5656 5657 5658 5658 5659 5659 5660 5660 5660 5660 5659 5659 5659 5658 5658 5657 5657 5656 5655 5655 5654 5653 5653 5652 5651 5650 5648 5646 5644 5642 5639 5637 5635 5633 5631 5629 5627 5626 5625 5624
5561 5563 5566 5568 5571 5574 5576 5579 5581 5584 5586 5588 5590 5593 5596 5598 5600 5603 5605 5607 5610 5612 5614 5616 5618 5620 5622 5624 5627 5629 5631 5633 5635 5636 5638 5640 5642 5643 5645 5646 5648 5649 5650 5651 5652 5653 5653 5654 5654 5655 5656 5656 5656 5657 5657 5657 5656 5656 5656 5656 5655 5655 5654 5654 5653 5652 5651 5651 5650 5650 5650 5648 5647 5646 5644 5642 5640 5638 5636 5634 5632 5630 5629 5628 5627 5627 5626